Faith, SD

1:06 PM MST on February 14, 2016 (GMT -0700)
Faith

Weather History for KD07 - January, 2012

Change the Weather History Date:

Tuesday, January 10, 2012

  Actual Average Record
Temperature  
Mean Temperature 45 °F 20 °F  
Max Temperature 59 °F 30 °F 59 °F (2012)
Min Temperature 30 °F 11 °F -12 °F (2011)
Degree Days  
Heating Degree Days 20 45  
Month to date heating degree days 293 450  
Since 1 July heating degree days 2796 3593  
Cooling Degree Days 0 0  
Month to date cooling degree days 0 0  
Year to date cooling degree days 0 0  
Moisture  
Dew Point 27 °F    
Average Humidity 63    
Maximum Humidity 100    
Minimum Humidity 26    
Precipitation  
Precipitation 0.03 in 0.00 in 0.03 in (2012)
Month to date precipitation 0.03 0.06  
Year to date precipitation 0.03 0.06  
Sea Level Pressure  
Sea Level Pressure 29.84 in    
Wind  
Wind Speed 14 mph (West)    
Max Wind Speed 32 mph    
Max Gust Speed 38 mph    
T = Trace of Precipitation, MM = Missing Value Source: NWS Daily Summary

Daily Weather History Graph

Daily Weather History Graph

Search for Another Location

Airport or City:

Trip Planner

Search our weather history database for the weather conditions in past years. The results will help you decide how hot, cold, wet, or windy it might be!

Date:

Astronomy

Jan. 10, 2012 Rise Set
Actual Time 7:25 AM MST 4:26 PM MST
Civil Twilight 6:52 AM MST 4:59 PM MST
Nautical Twilight 6:15 AM MST 5:35 PM MST
Astronomical Twilight 5:39 AM MST 6:11 PM MST
Moon 6:26 PM MST (1/10) 7:59 AM MST (1/10)
Length of Visible Light 10h 07m
Length of Day
9h 00m
Full, 98% of the Moon is Illuminated
Jan 10
Full
Jan 16
Last Quarter
Jan 23
New
Jan 30
First Quarter
Feb 7
Full

Hourly Weather History & Observations

Time (MST) Temp. Windchill Dew Point Humidity Pressure Visibility Wind Dir Wind Speed Gust Speed Precip Events Conditions
12:56 AM 37.9 °F 30.0 °F 26.1 °F 62% 29.97 in - WSW 12.7 mph - N/A   Unknown
1:56 AM 37.0 °F 30.4 °F 26.1 °F 65% 29.96 in - West 9.2 mph - N/A   Unknown
2:56 AM 37.0 °F 29.3 °F 26.1 °F 65% 29.95 in - WNW 11.5 mph - N/A   Unknown
3:56 AM 36.0 °F - 26.1 °F 67% 29.95 in - North - - N/A   Unknown
4:56 AM 35.1 °F 27.4 °F 25.0 °F 67% 29.95 in - WNW 10.4 mph - N/A   Unknown
5:56 AM 34.0 °F 26.6 °F 25.0 °F 70% 29.93 in - West 9.2 mph - N/A   Unknown
6:56 AM 33.1 °F 26.1 °F 24.1 °F 70% 29.92 in - SW 8.1 mph - N/A   Unknown
7:56 AM 35.1 °F 31.0 °F 25.0 °F 67% 29.92 in - West 4.6 mph - N/A   Unknown
8:56 AM 44.1 °F 39.0 °F 26.1 °F 49% 29.89 in - WNW 9.2 mph - N/A   Unknown
9:56 AM 48.0 °F - 26.1 °F 42% 29.87 in - WNW 9.2 mph - N/A   Unknown
10:56 AM 53.1 °F - 27.0 °F 37% 29.82 in - SSW 10.4 mph - N/A   Unknown
11:56 AM 55.9 °F - 26.1 °F 32% 29.78 in - SW 11.5 mph - N/A   Unknown
12:56 PM 57.0 °F - 26.1 °F 30% 29.73 in - SSW 12.7 mph - N/A   Unknown
1:56 PM 59.0 °F - 25.0 °F 27% 29.69 in - SSW 13.8 mph - N/A   Unknown
2:56 PM 57.0 °F - 25.0 °F 29% 29.69 in - SSW 11.5 mph - N/A   Unknown
3:56 PM 46.9 °F - 25.0 °F 42% 29.70 in - South 9.2 mph - N/A   Unknown
4:56 PM 48.0 °F - 26.1 °F 42% 29.72 in - Variable 3.5 mph - N/A   Unknown
5:56 PM 48.0 °F - 26.1 °F 42% 29.74 in - NW 12.7 mph - N/A   Unknown
6:56 PM 46.9 °F - 26.1 °F 44% 29.75 in - NW 17.3 mph - N/A   Unknown
7:56 PM 39.0 °F 27.8 °F 33.1 °F 79% 29.79 in - North 26.5 mph 34.5 mph N/A   Unknown
8:56 PM 34.0 °F 20.8 °F 33.1 °F 96% 29.83 in - North 27.6 mph 33.4 mph 0.01 in   Unknown
9:56 PM 30.9 °F 17.8 °F 30.9 °F 100% 29.88 in - North 23.0 mph 34.5 mph 0.02 in   Unknown
10:56 PM 30.9 °F 16.9 °F 28.9 °F 92% 29.90 in - NNW 26.5 mph 36.8 mph N/A   Unknown
11:56 PM 30.0 °F 16.0 °F 28.0 °F 92% 29.94 in - NNW 25.3 mph 34.5 mph N/A   Unknown